Location: Unspecified
(0.0000°N, 0.0000°E)
Time: 09:10:49
(UTC+00:00)

Explorer 11/Cluster Stage 4 - Pass Details

Date: 14 July 2020
Orbit: 467 x 1259 km, 28.8° (Epoch: 03 August)

Event Time Altitude Azimuth Distance (km) Brightness Sun altitude
Rises 05:23:16 0° 222° (SW) 2,537 - -9.9°
Exits shadow 05:25:14 - 212° (SSW) 1,799 8.0 -9.5°
Reaches altitude 10° 05:25:45 10° 208° (SSW) 1,620 7.8 -9.3°
Maximum altitude 05:28:48 25° 150° (SSE) 970 7.2 -8.6°
Drops below altitude 10° 05:31:52 10° 93° (E) 1,636 9.5 -7.9°
Sets 05:34:23 0° 79° (E) 2,568 11.4 -7.3°
